Time,TemperatureF,DewpointF,PressureIn,WindDirection,WindDirectionDegrees,WindSpeedMPH,WindSpeedGustMPH,Humidity,HourlyPrecipIn,Conditions,Clouds,dailyrainin,SoftwareType,DateUTC
2013-11-17 00:02:00,52.0,47.3,30.06,SSW,205,0.0,0.0,84,0.00,,,0.00,Wunderground v.1.13,2013-11-17 05:02:00,
2013-11-17 00:03:00,51.9,47.2,30.06,SSW,205,0.0,0.0,84,0.00,,,0.00,Wunderground v.1.13,2013-11-17 05:03:00,
2013-11-17 00:04:00,51.9,46.9,30.06,SSW,205,0.0,0.0,83,0.00,,,0.00,Wunderground v.1.13,2013-11-17 05:04:00,
2013-11-17 00:05:00,51.8,46.8,30.06,SSW,205,0.0,0.0,83,0.00,,,0.00,Wunderground v.1.13,2013-11-17 05:05:00,
2013-11-17 00:06:00,51.8,46.8,30.06,SSW,205,0.0,0.0,83,0.00,,,0.00,Wunderground v.1.13,2013-11-17 05:06:00,
2013-11-17 00:07:00,51.7,46.7,30.06,SSW,205,0.0,0.0,83,0.00,,,0.00,Wunderground v.1.13,2013-11-17 05:07:00,
2013-11-17 00:13:00,51.5,46.8,30.06,SSW,211,0.0,2.0,84,0.00,,,0.00,Wunderground v.1.13,2013-11-17 05:13:00,
2013-11-17 00:19:00,51.2,46.5,30.06,SSW,201,2.0,2.0,84,0.00,,,0.00,Wunderground v.1.13,2013-11-17 05:19:00,
2013-11-17 00:25:00,51.2,46.8,30.06,South,184,3.0,3.0,85,0.00,,,0.00,Wunderground v.1.13,2013-11-17 05:25:00,
2013-11-17 00:31:00,51.2,46.8,30.05,SSW,198,0.0,1.0,85,0.00,,,0.00,Wunderground v.1.13,2013-11-17 05:31:00,
2013-11-17 00:36:00,50.9,46.2,30.04,SSW,198,1.0,1.0,84,0.00,,,0.00,Wunderground v.1.13,2013-11-17 05:36:00,
2013-11-17 00:42:00,50.5,46.2,30.04,SSW,192,4.0,4.0,85,0.00,,,0.00,Wunderground v.1.13,2013-11-17 05:42:00,
2013-11-17 00:48:00,50.8,47.1,30.03,SSW,193,0.0,3.0,87,0.00,,,0.00,Wunderground v.1.13,2013-11-17 05:48:00,
2013-11-17 00:54:00,51.0,47.0,30.03,SSW,192,0.0,2.0,86,0.00,,,0.00,Wunderground v.1.13,2013-11-17 05:54:00,
2013-11-17 01:00:00,51.3,47.3,30.03,SSW,201,0.0,2.0,86,0.00,,,0.00,Wunderground v.1.13,2013-11-17 06:00:00,
2013-11-17 01:05:00,51.6,47.5,30.02,West,262,3.0,3.0,86,0.00,,,0.00,Wunderground v.1.13,2013-11-17 06:05:00,
2013-11-17 01:11:00,51.9,47.5,30.03,SW,215,6.0,6.0,85,0.00,,,0.00,Wunderground v.1.13,2013-11-17 06:11:00,
2013-11-17 01:16:00,52.3,47.9,30.03,SSW,199,0.0,2.0,85,0.00,,,0.00,Wunderground v.1.13,2013-11-17 06:16:00,
2013-11-17 01:21:00,52.5,47.8,30.02,SSW,199,0.0,2.0,84,0.00,,,0.00,Wunderground v.1.13,2013-11-17 06:21:00,
2013-11-17 01:27:00,52.4,47.1,30.03,SSW,211,4.0,4.0,82,0.00,,,0.00,Wunderground v.1.13,2013-11-17 06:27:00,
2013-11-17 01:33:00,52.2,46.9,30.02,SSW,204,1.0,3.0,82,0.00,,,0.00,Wunderground v.1.13,2013-11-17 06:33:00,
2013-11-17 01:39:00,52.1,47.1,30.03,SW,216,0.0,6.0,83,0.00,,,0.00,Wunderground v.1.13,2013-11-17 06:39:00,
2013-11-17 01:44:00,52.3,47.6,30.03,SSW,199,4.0,4.0,84,0.00,,,0.00,Wunderground v.1.13,2013-11-17 06:44:00,
2013-11-17 01:50:00,52.7,47.7,30.02,SSW,208,0.0,3.0,83,0.00,,,0.00,Wunderground v.1.13,2013-11-17 06:50:00,
2013-11-17 01:56:00,52.8,47.5,30.03,SSW,200,0.0,2.0,82,0.00,,,0.00,Wunderground v.1.13,2013-11-17 06:56:00,
2013-11-17 02:01:00,52.8,47.5,30.03,SSW,200,0.0,1.0,82,0.00,,,0.00,Wunderground v.1.13,2013-11-17 07:01:00,
2013-11-17 02:06:00,52.8,47.5,30.02,South,175,0.0,8.0,82,0.00,,,0.00,Wunderground v.1.13,2013-11-17 07:06:00,
2013-11-17 02:11:00,52.7,47.0,30.03,South,176,0.0,2.0,81,0.00,,,0.00,Wunderground v.1.13,2013-11-17 07:11:00,
2013-11-17 02:16:00,52.5,47.2,30.02,South,171,0.0,5.0,82,0.00,,,0.00,Wunderground v.1.13,2013-11-17 07:16:00,
2013-11-17 02:21:00,52.6,47.6,30.02,SE,140,0.0,4.0,83,0.00,,,0.00,Wunderground v.1.13,2013-11-17 07:21:00,
2013-11-17 02:26:00,52.9,47.9,30.02,SSE,148,0.0,9.0,83,0.00,,,0.00,Wunderground v.1.13,2013-11-17 07:26:00,
2013-11-17 02:31:00,53.3,47.9,30.01,South,188,0.0,6.0,82,0.00,,,0.00,Wunderground v.1.13,2013-11-17 07:31:00,
2013-11-17 02:36:00,53.8,48.1,30.01,SW,215,5.0,7.0,81,0.00,,,0.00,Wunderground v.1.13,2013-11-17 07:36:00,
2013-11-17 02:41:00,54.3,48.3,30.01,South,187,5.0,7.0,80,0.00,,,0.00,Wunderground v.1.13,2013-11-17 07:41:00,
2013-11-17 02:46:00,54.6,48.2,30.00,South,188,4.0,7.0,79,0.00,,,0.00,Wunderground v.1.13,2013-11-17 07:46:00,
2013-11-17 02:51:00,54.6,48.2,30.00,SSW,194,0.0,3.0,79,0.00,,,0.00,Wunderground v.1.13,2013-11-17 07:51:00,
2013-11-17 02:56:00,54.6,48.2,30.00,SW,219,5.0,5.0,79,0.00,,,0.00,Wunderground v.1.13,2013-11-17 07:56:00,
2013-11-17 03:01:00,54.7,48.3,30.00,SSW,205,4.0,9.0,79,0.00,,,0.00,Wunderground v.1.13,2013-11-17 08:01:00,
2013-11-17 03:06:00,54.7,48.3,30.00,SSW,211,0.0,2.0,79,0.00,,,0.00,Wunderground v.1.13,2013-11-17 08:06:00,
2013-11-17 03:11:00,54.7,48.3,30.00,SSW,211,0.0,1.0,79,0.00,,,0.00,Wunderground v.1.13,2013-11-17 08:11:00,
2013-11-17 03:16:00,54.5,48.1,30.00,SSW,213,0.0,5.0,79,0.00,,,0.00,Wunderground v.1.13,2013-11-17 08:16:00,
2013-11-17 03:21:00,54.4,48.0,30.00,SW,229,4.0,12.0,79,0.00,,,0.00,Wunderground v.1.13,2013-11-17 08:21:00,
2013-11-17 03:26:00,54.5,48.1,30.00,SW,227,0.0,2.0,79,0.00,,,0.00,Wunderground v.1.13,2013-11-17 08:26:00,
2013-11-17 03:31:00,54.5,48.1,30.00,SW,227,0.0,5.0,79,0.00,,,0.00,Wunderground v.1.13,2013-11-17 08:31:00,
2013-11-17 03:36:00,54.5,48.1,30.00,SW,234,0.0,1.0,79,0.00,,,0.00,Wunderground v.1.13,2013-11-17 08:36:00,
2013-11-17 03:41:00,54.4,48.0,29.99,SW,234,0.0,1.0,79,0.00,,,0.00,Wunderground v.1.13,2013-11-17 08:41:00,
2013-11-17 03:46:00,54.2,47.8,29.99,SW,236,2.0,5.0,79,0.00,,,0.00,Wunderground v.1.13,2013-11-17 08:46:00,
2013-11-17 03:51:00,54.2,48.5,30.00,SW,219,0.0,3.0,81,0.00,,,0.00,Wunderground v.1.13,2013-11-17 08:51:00,
2013-11-17 03:56:00,54.3,49.2,30.00,SW,221,4.0,9.0,83,0.00,,,0.00,Wunderground v.1.13,2013-11-17 08:56:00,
2013-11-17 04:01:00,54.2,49.1,29.99,SSW,203,3.0,3.0,83,0.00,,,0.01,Wunderground v.1.13,2013-11-17 09:01:00,
2013-11-17 04:06:00,54.0,49.3,29.99,SSW,203,0.0,2.0,84,0.00,,,0.01,Wunderground v.1.13,2013-11-17 09:06:00,
2013-11-17 04:11:00,53.8,49.1,30.00,SW,232,5.0,9.0,84,0.00,,,0.01,Wunderground v.1.13,2013-11-17 09:11:00,
2013-11-17 04:16:00,53.5,49.1,30.00,SW,217,0.0,1.0,85,0.00,,,0.01,Wunderground v.1.13,2013-11-17 09:16:00,
2013-11-17 04:21:00,53.3,49.2,30.00,SW,217,0.0,1.0,86,0.00,,,0.01,Wunderground v.1.13,2013-11-17 09:21:00,
2013-11-17 04:26:00,53.2,49.1,30.00,SSE,160,4.0,8.0,86,0.00,,,0.01,Wunderground v.1.13,2013-11-17 09:26:00,
2013-11-17 04:31:00,53.0,49.2,29.99,SSE,162,0.0,2.0,87,0.00,,,0.02,Wunderground v.1.13,2013-11-17 09:31:00,
2013-11-17 04:36:00,52.9,49.4,29.98,SSE,162,0.0,1.0,88,0.00,,,0.02,Wunderground v.1.13,2013-11-17 09:36:00,
2013-11-17 04:41:00,52.8,49.3,29.98,SSE,162,0.0,2.0,88,0.00,,,0.02,Wunderground v.1.13,2013-11-17 09:41:00,
2013-11-17 04:46:00,52.5,49.0,29.98,SSE,162,0.0,0.0,88,0.00,,,0.03,Wunderground v.1.13,2013-11-17 09:46:00,
2013-11-17 04:51:00,52.3,49.2,29.98,SSE,162,0.0,0.0,89,0.00,,,0.03,Wunderground v.1.13,2013-11-17 09:51:00,
2013-11-17 04:56:00,52.1,49.0,29.98,SSE,162,0.0,0.0,89,0.00,,,0.03,Wunderground v.1.13,2013-11-17 09:56:00,
2013-11-17 05:01:00,51.9,48.8,29.98,SSE,162,0.0,1.0,89,0.00,,,0.03,Wunderground v.1.13,2013-11-17 10:01:00,
2013-11-17 05:06:00,51.8,49.0,29.98,SSE,159,0.0,2.0,90,0.00,,,0.03,Wunderground v.1.13,2013-11-17 10:06:00,
2013-11-17 05:11:00,51.9,49.1,29.98,South,172,0.0,4.0,90,0.00,,,0.03,Wunderground v.1.13,2013-11-17 10:11:00,
2013-11-17 05:16:00,52.1,49.3,29.98,South,184,0.0,3.0,90,0.00,,,0.03,Wunderground v.1.13,2013-11-17 10:16:00,
2013-11-17 05:21:00,52.2,49.4,29.98,South,191,3.0,5.0,90,0.00,,,0.03,Wunderground v.1.13,2013-11-17 10:21:00,
2013-11-17 05:26:00,52.3,49.5,29.98,South,188,0.0,4.0,90,0.00,,,0.03,Wunderground v.1.13,2013-11-17 10:26:00,
2013-11-17 05:31:00,52.3,49.5,29.98,South,188,0.0,1.0,90,0.00,,,0.03,Wunderground v.1.13,2013-11-17 10:31:00,
2013-11-17 05:36:00,52.3,49.5,29.98,South,188,0.0,1.0,90,0.00,,,0.03,Wunderground v.1.13,2013-11-17 10:36:00,
2013-11-17 05:41:00,52.3,49.5,29.97,SSW,196,5.0,7.0,90,0.00,,,0.03,Wunderground v.1.13,2013-11-17 10:41:00,
2013-11-17 05:46:00,52.5,49.7,29.97,SSW,196,2.0,5.0,90,0.00,,,0.03,Wunderground v.1.13,2013-11-17 10:46:00,
2013-11-17 05:51:00,52.6,49.8,29.97,SSW,195,1.0,5.0,90,0.00,,,0.03,Wunderground v.1.13,2013-11-17 10:51:00,
2013-11-17 05:56:00,52.8,49.9,29.97,South,171,0.0,1.0,90,0.00,,,0.03,Wunderground v.1.13,2013-11-17 10:56:00,
2013-11-17 06:01:00,52.9,50.0,29.97,South,173,0.0,9.0,90,0.00,,,0.03,Wunderground v.1.13,2013-11-17 11:01:00,
2013-11-17 06:06:00,53.0,49.8,29.97,South,174,2.0,7.0,89,0.00,,,0.03,Wunderground v.1.13,2013-11-17 11:06:00,
2013-11-17 06:11:00,53.3,50.1,29.97,SSW,205,2.0,8.0,89,0.00,,,0.03,Wunderground v.1.13,2013-11-17 11:11:00,
2013-11-17 06:16:00,53.7,50.2,29.98,SSW,194,1.0,10.0,88,0.00,,,0.03,Wunderground v.1.13,2013-11-17 11:16:00,
2013-11-17 06:21:00,54.0,50.2,29.98,South,186,5.0,8.0,87,0.00,,,0.03,Wunderground v.1.13,2013-11-17 11:21:00,
2013-11-17 06:26:00,54.2,50.4,29.97,South,188,0.0,2.0,87,0.00,,,0.03,Wunderground v.1.13,2013-11-17 11:26:00,
2013-11-17 06:31:00,54.3,50.2,29.97,South,188,0.0,1.0,86,0.00,,,0.03,Wunderground v.1.13,2013-11-17 11:31:00,
2013-11-17 06:36:00,54.2,50.4,29.97,South,188,0.0,0.0,87,0.00,,,0.03,Wunderground v.1.13,2013-11-17 11:36:00,
2013-11-17 06:41:00,54.0,50.2,29.97,South,180,0.0,6.0,87,0.00,,,0.03,Wunderground v.1.13,2013-11-17 11:41:00,
2013-11-17 06:46:00,54.0,50.2,29.97,SSW,200,5.0,7.0,87,0.00,,,0.03,Wunderground v.1.13,2013-11-17 11:46:00,
2013-11-17 06:51:00,54.2,50.1,29.97,SSW,204,0.0,6.0,86,0.00,,,0.03,Wunderground v.1.13,2013-11-17 11:51:00,
2013-11-17 06:56:00,54.4,50.3,29.97,SSW,202,3.0,5.0,86,0.00,,,0.03,Wunderground v.1.13,2013-11-17 11:56:00,
2013-11-17 07:01:00,54.8,50.4,29.97,SSW,200,0.0,3.0,85,0.00,,,0.03,Wunderground v.1.13,2013-11-17 12:01:00,
2013-11-17 07:06:00,55.1,50.4,29.97,South,186,2.0,3.0,84,0.00,,,0.03,Wunderground v.1.13,2013-11-17 12:06:00,
2013-11-17 07:11:00,55.3,50.5,29.97,South,189,0.0,3.0,84,0.00,,,0.03,Wunderground v.1.13,2013-11-17 12:11:00,
2013-11-17 07:16:00,55.5,50.4,29.97,SSW,194,0.0,4.0,83,0.00,,,0.03,Wunderground v.1.13,2013-11-17 12:16:00,
2013-11-17 07:21:00,55.7,50.6,29.97,SSW,194,0.0,1.0,83,0.00,,,0.03,Wunderground v.1.13,2013-11-17 12:21:00,
2013-11-17 07:26:00,55.7,50.6,29.97,South,186,3.0,7.0,83,0.00,,,0.03,Wunderground v.1.13,2013-11-17 12:26:00,
2013-11-17 07:31:00,55.8,50.7,29.97,South,188,0.0,5.0,83,0.00,,,0.03,Wunderground v.1.13,2013-11-17 12:31:00,
2013-11-17 07:37:00,56.0,50.9,29.96,South,185,0.0,8.0,83,0.00,,,0.03,Wunderground v.1.13,2013-11-17 12:37:00,
2013-11-17 07:42:00,56.4,51.0,29.96,SSW,200,4.0,11.0,82,0.00,,,0.03,Wunderground v.1.13,2013-11-17 12:42:00,
2013-11-17 07:47:00,56.8,51.4,29.96,South,173,1.0,9.0,82,0.00,,,0.03,Wunderground v.1.13,2013-11-17 12:47:00,
2013-11-17 07:52:00,57.2,51.4,29.95,South,188,3.0,8.0,81,0.00,,,0.03,Wunderground v.1.13,2013-11-17 12:52:00,
2013-11-17 07:57:00,57.6,51.8,29.95,SSW,197,4.0,7.0,81,0.00,,,0.03,Wunderground v.1.13,2013-11-17 12:57:00,
2013-11-17 08:02:00,58.0,51.9,29.96,SSW,200,1.0,7.0,80,0.00,,,0.03,Wunderground v.1.13,2013-11-17 13:02:00,
2013-11-17 08:07:00,58.5,52.0,29.96,SSE,165,0.0,9.0,79,0.00,,,0.03,Wunderground v.1.13,2013-11-17 13:07:00,
2013-11-17 08:12:00,58.9,52.1,29.95,SSW,201,0.0,5.0,78,0.00,,,0.03,Wunderground v.1.13,2013-11-17 13:12:00,
2013-11-17 08:17:00,59.3,52.1,29.95,South,176,5.0,10.0,77,0.00,,,0.03,Wunderground v.1.13,2013-11-17 13:17:00,
2013-11-17 08:22:00,59.8,52.2,29.95,SSE,168,7.0,12.0,76,0.00,,,0.03,Wunderground v.1.13,2013-11-17 13:22:00,
2013-11-17 08:27:00,60.3,52.7,29.95,South,170,8.0,11.0,76,0.00,,,0.03,Wunderground v.1.13,2013-11-17 13:27:00,
2013-11-17 08:32:00,60.8,52.5,29.95,SSE,155,4.0,11.0,74,0.00,,,0.03,Wunderground v.1.13,2013-11-17 13:32:00,
2013-11-17 08:37:00,61.1,52.4,29.95,SSW,209,5.0,9.0,73,0.00,,,0.03,Wunderground v.1.13,2013-11-17 13:37:00,
2013-11-17 08:42:00,61.4,52.7,29.95,SSE,163,5.0,8.0,73,0.00,,,0.03,Wunderground v.1.13,2013-11-17 13:42:00,
2013-11-17 08:47:00,61.6,52.5,29.95,South,174,5.0,7.0,72,0.00,,,0.03,Wunderground v.1.13,2013-11-17 13:47:00,
2013-11-17 08:52:00,61.7,52.6,29.95,South,180,2.0,6.0,72,0.00,,,0.03,Wunderground v.1.13,2013-11-17 13:52:00,
2013-11-17 08:57:00,61.8,53.1,29.95,SSE,164,5.0,14.0,73,0.00,,,0.03,Wunderground v.1.13,2013-11-17 13:57:00,
2013-11-17 09:02:00,61.8,53.8,29.95,SSE,167,0.0,6.0,75,0.00,,,0.03,Wunderground v.1.13,2013-11-17 14:02:00,
2013-11-17 09:07:00,61.7,54.4,29.95,South,188,4.0,7.0,77,0.00,,,0.03,Wunderground v.1.13,2013-11-17 14:07:00,
2013-11-17 09:12:00,61.4,54.5,29.95,SSW,195,0.0,3.0,78,0.00,,,0.04,Wunderground v.1.13,2013-11-17 14:12:00,
2013-11-17 09:17:00,61.2,55.0,29.95,SSW,208,3.0,4.0,80,0.00,,,0.04,Wunderground v.1.13,2013-11-17 14:17:00,
2013-11-17 09:22:00,61.0,55.1,29.95,SSW,208,0.0,3.0,81,0.00,,,0.04,Wunderground v.1.13,2013-11-17 14:22:00,
2013-11-17 09:27:00,60.7,54.8,29.95,SSW,208,0.0,2.0,81,0.00,,,0.04,Wunderground v.1.13,2013-11-17 14:27:00,
2013-11-17 09:32:00,60.4,54.9,29.95,SSW,208,0.0,2.0,82,0.00,,,0.04,Wunderground v.1.13,2013-11-17 14:32:00,
2013-11-17 09:37:00,60.3,55.1,29.95,SSW,208,0.0,0.0,83,0.00,,,0.05,Wunderground v.1.13,2013-11-17 14:37:00,
2013-11-17 09:42:00,60.1,55.2,29.94,SSW,208,0.0,2.0,84,0.00,,,0.05,Wunderground v.1.13,2013-11-17 14:42:00,
2013-11-17 09:47:00,60.0,55.5,29.94,SSW,208,0.0,1.0,85,0.00,,,0.05,Wunderground v.1.13,2013-11-17 14:47:00,
2013-11-17 09:52:00,59.9,55.7,29.94,SSW,208,1.0,3.0,86,0.00,,,0.05,Wunderground v.1.13,2013-11-17 14:52:00,
2013-11-17 09:57:00,60.0,56.1,29.93,SSW,208,0.0,0.0,87,0.00,,,0.05,Wunderground v.1.13,2013-11-17 14:57:00,
2013-11-17 10:02:00,60.2,56.3,29.93,SSW,208,0.0,2.0,87,0.00,,,0.05,Wunderground v.1.13,2013-11-17 15:02:00,
2013-11-17 10:07:00,60.7,56.8,29.93,SSW,208,0.0,2.0,87,0.00,,,0.05,Wunderground v.1.13,2013-11-17 15:07:00,
2013-11-17 10:12:00,61.5,57.6,29.93,SSW,208,0.0,2.0,87,0.00,,,0.05,Wunderground v.1.13,2013-11-17 15:12:00,
2013-11-17 10:17:00,62.1,57.2,29.93,SSW,208,0.0,3.0,84,0.00,,,0.05,Wunderground v.1.13,2013-11-17 15:17:00,
2013-11-17 10:22:00,62.7,57.1,29.92,SSW,208,5.0,5.0,82,0.00,,,0.05,Wunderground v.1.13,2013-11-17 15:22:00,
2013-11-17 10:27:00,63.2,56.9,29.91,SSW,194,0.0,11.0,80,0.00,,,0.05,Wunderground v.1.13,2013-11-17 15:27:00,
2013-11-17 10:32:00,63.8,56.4,29.91,SW,214,1.0,6.0,77,0.00,,,0.05,Wunderground v.1.13,2013-11-17 15:32:00,
2013-11-17 10:37:00,64.3,56.2,29.91,South,186,0.0,2.0,75,0.00,,,0.05,Wunderground v.1.13,2013-11-17 15:37:00,
2013-11-17 10:42:00,64.7,56.2,29.91,SSW,209,0.0,8.0,74,0.00,,,0.05,Wunderground v.1.13,2013-11-17 15:42:00,
2013-11-17 10:47:00,65.0,56.1,29.91,SSW,207,0.0,3.0,73,0.00,,,0.05,Wunderground v.1.13,2013-11-17 15:47:00,
2013-11-17 10:52:00,65.2,55.6,29.91,SSE,168,4.0,13.0,71,0.00,,,0.05,Wunderground v.1.13,2013-11-17 15:52:00,
2013-11-17 10:57:00,65.4,55.7,29.91,SW,221,0.0,11.0,71,0.00,,,0.05,Wunderground v.1.13,2013-11-17 15:57:00,
2013-11-17 11:02:00,65.4,55.7,29.91,SSW,192,1.0,7.0,71,0.00,,,0.05,Wunderground v.1.13,2013-11-17 16:02:00,
2013-11-17 11:07:00,65.4,55.4,29.91,SSW,202,1.0,5.0,70,0.00,,,0.05,Wunderground v.1.13,2013-11-17 16:07:00,
2013-11-17 11:12:00,65.4,55.7,29.92,SSW,202,0.0,4.0,71,0.00,,,0.05,Wunderground v.1.13,2013-11-17 16:12:00,
2013-11-17 11:17:00,65.3,55.3,29.91,South,190,0.0,1.0,70,0.00,,,0.05,Wunderground v.1.13,2013-11-17 16:17:00,
2013-11-17 11:22:00,65.1,55.1,29.91,South,190,1.0,4.0,70,0.00,,,0.05,Wunderground v.1.13,2013-11-17 16:22:00,
2013-11-17 11:27:00,64.9,54.9,29.91,South,190,0.0,3.0,70,0.00,,,0.05,Wunderground v.1.13,2013-11-17 16:27:00,
2013-11-17 11:32:00,64.7,54.7,29.91,SSW,192,0.0,4.0,70,0.00,,,0.05,Wunderground v.1.13,2013-11-17 16:32:00,
2013-11-17 11:37:00,64.6,55.4,29.90,SSW,192,0.0,2.0,72,0.00,,,0.05,Wunderground v.1.13,2013-11-17 16:37:00,
2013-11-17 11:42:00,64.5,55.3,29.90,SSW,202,3.0,3.0,72,0.00,,,0.05,Wunderground v.1.13,2013-11-17 16:42:00,
2013-11-17 11:47:00,64.4,55.6,29.90,SSE,162,6.0,13.0,73,0.00,,,0.05,Wunderground v.1.13,2013-11-17 16:47:00,
2013-11-17 11:52:00,64.3,55.5,29.90,South,179,0.0,6.0,73,0.00,,,0.05,Wunderground v.1.13,2013-11-17 16:52:00,
2013-11-17 11:57:00,64.3,55.5,29.89,South,184,0.0,5.0,73,0.00,,,0.05,Wunderground v.1.13,2013-11-17 16:57:00,
2013-11-17 12:02:00,64.3,55.5,29.89,South,184,0.0,3.0,73,0.00,,,0.05,Wunderground v.1.13,2013-11-17 17:02:00,
2013-11-17 12:08:00,64.4,55.6,29.89,SW,217,1.0,5.0,73,0.00,,,0.05,Wunderground v.1.13,2013-11-17 17:08:00,
2013-11-17 12:13:00,64.4,55.6,29.89,SW,222,4.0,6.0,73,0.00,,,0.05,Wunderground v.1.13,2013-11-17 17:13:00,
2013-11-17 12:18:00,64.4,55.9,29.89,SW,223,3.0,4.0,74,0.00,,,0.05,Wunderground v.1.13,2013-11-17 17:18:00,
2013-11-17 12:24:00,64.3,55.5,29.89,SW,225,2.0,2.0,73,0.00,,,0.05,Wunderground v.1.13,2013-11-17 17:24:00,
2013-11-17 12:29:00,64.3,55.5,29.89,SW,228,0.0,4.0,73,0.00,,,0.05,Wunderground v.1.13,2013-11-17 17:29:00,
2013-11-17 12:34:00,64.3,55.5,29.89,SW,220,0.0,5.0,73,0.00,,,0.05,Wunderground v.1.13,2013-11-17 17:34:00,
2013-11-17 12:39:00,64.3,55.8,29.89,SW,220,2.0,2.0,74,0.00,,,0.05,Wunderground v.1.13,2013-11-17 17:39:00,
2013-11-17 12:44:00,64.2,55.7,29.88,SW,217,1.0,5.0,74,0.00,,,0.05,Wunderground v.1.13,2013-11-17 17:44:00,
2013-11-17 12:49:00,64.1,55.3,29.88,SSW,211,0.0,8.0,73,0.00,,,0.05,Wunderground v.1.13,2013-11-17 17:49:00,
2013-11-17 12:54:00,64.1,55.6,29.88,SSW,211,0.0,3.0,74,0.00,,,0.05,Wunderground v.1.13,2013-11-17 17:54:00,
2013-11-17 12:59:00,64.1,55.3,29.88,SW,215,0.0,3.0,73,0.00,,,0.05,Wunderground v.1.13,2013-11-17 17:59:00,
2013-11-17 13:04:00,64.1,55.6,29.88,SW,215,2.0,5.0,74,0.00,,,0.05,Wunderground v.1.13,2013-11-17 18:04:00,
2013-11-17 13:09:00,64.1,55.6,29.87,SW,215,0.0,5.0,74,0.00,,,0.05,Wunderground v.1.13,2013-11-17 18:09:00,
2013-11-17 13:14:00,64.1,55.6,29.87,South,176,0.0,10.0,74,0.00,,,0.05,Wunderground v.1.13,2013-11-17 18:14:00,
2013-11-17 13:19:00,64.0,55.9,29.88,South,186,6.0,8.0,75,0.00,,,0.05,Wunderground v.1.13,2013-11-17 18:19:00,
2013-11-17 13:24:00,63.8,56.1,29.87,South,177,0.0,2.0,76,0.00,,,0.05,Wunderground v.1.13,2013-11-17 18:24:00,
2013-11-17 13:29:00,63.7,56.4,29.87,South,177,0.0,1.0,77,0.00,,,0.05,Wunderground v.1.13,2013-11-17 18:29:00,
2013-11-17 13:35:00,63.6,56.6,29.87,South,182,0.0,1.0,78,0.00,,,0.05,Wunderground v.1.13,2013-11-17 18:35:00,
2013-11-17 13:39:00,63.4,56.8,29.87,SSW,193,7.0,7.0,79,0.00,,,0.05,Wunderground v.1.13,2013-11-17 18:39:00,
2013-11-17 13:45:00,63.1,56.8,29.86,South,183,3.0,3.0,80,0.00,,,0.06,Wunderground v.1.13,2013-11-17 18:45:00,
2013-11-17 13:50:00,62.9,57.0,29.86,SSW,192,4.0,4.0,81,0.00,,,0.06,Wunderground v.1.13,2013-11-17 18:50:00,
2013-11-17 13:55:00,62.5,56.9,29.86,South,178,8.0,8.0,82,0.00,,,0.06,Wunderground v.1.13,2013-11-17 18:55:00,
2013-11-17 14:00:00,62.2,56.6,29.85,SSW,205,7.0,7.0,82,0.00,,,0.06,Wunderground v.1.13,2013-11-17 19:00:00,
2013-11-17 14:05:00,61.9,56.7,29.85,SSW,205,0.0,2.0,83,0.00,,,0.06,Wunderground v.1.13,2013-11-17 19:05:00,
2013-11-17 14:10:00,61.7,56.5,29.85,South,183,0.0,1.0,83,0.00,,,0.06,Wunderground v.1.13,2013-11-17 19:10:00,
2013-11-17 14:15:00,61.6,56.7,29.84,South,186,0.0,1.0,84,0.00,,,0.06,Wunderground v.1.13,2013-11-17 19:15:00,
2013-11-17 14:20:00,61.4,56.5,29.84,South,186,0.0,0.0,84,0.00,,,0.07,Wunderground v.1.13,2013-11-17 19:20:00,
2013-11-17 14:25:00,61.3,56.8,29.83,South,186,0.0,0.0,85,0.00,,,0.07,Wunderground v.1.13,2013-11-17 19:25:00,
2013-11-17 14:30:00,61.2,57.0,29.83,South,186,0.0,0.0,86,0.05,,,0.08,Wunderground v.1.13,2013-11-17 19:30:00,
2013-11-17 14:35:00,61.2,57.0,29.82,South,186,0.0,0.0,86,0.05,,,0.08,Wunderground v.1.13,2013-11-17 19:35:00,
2013-11-17 14:40:00,61.2,57.3,29.82,South,186,0.0,0.0,87,0.07,,,0.09,Wunderground v.1.13,2013-11-17 19:40:00,
2013-11-17 14:45:00,61.1,57.5,29.80,South,186,0.0,0.0,88,0.07,,,0.09,Wunderground v.1.13,2013-11-17 19:45:00,
2013-11-17 14:50:00,61.0,57.4,29.80,South,178,0.0,1.0,88,0.05,,,0.09,Wunderground v.1.13,2013-11-17 19:50:00,
2013-11-17 14:55:00,60.8,57.2,29.79,South,175,0.0,1.0,88,0.04,,,0.10,Wunderground v.1.13,2013-11-17 19:55:00,
2013-11-17 15:00:00,60.7,57.1,29.79,South,177,0.0,1.0,88,0.04,,,0.10,Wunderground v.1.13,2013-11-17 20:00:00,
2013-11-17 15:05:00,60.7,57.1,29.80,South,182,0.0,6.0,88,0.04,,,0.10,Wunderground v.1.13,2013-11-17 20:05:00,
2013-11-17 15:10:00,60.6,57.0,29.79,South,182,0.0,1.0,88,0.04,,,0.10,Wunderground v.1.13,2013-11-17 20:10:00,
2013-11-17 15:15:00,60.6,57.0,29.78,South,182,1.0,1.0,88,0.00,,,0.10,Wunderground v.1.13,2013-11-17 20:15:00,
2013-11-17 15:20:00,60.6,57.0,29.78,South,176,0.0,1.0,88,0.00,,,0.10,Wunderground v.1.13,2013-11-17 20:20:00,
2013-11-17 15:25:00,60.7,57.1,29.78,South,175,0.0,1.0,88,0.00,,,0.10,Wunderground v.1.13,2013-11-17 20:25:00,
2013-11-17 15:30:00,60.7,57.1,29.78,South,175,0.0,1.0,88,0.00,,,0.10,Wunderground v.1.13,2013-11-17 20:30:00,
2013-11-17 15:35:00,60.7,56.8,29.77,SSE,153,0.0,2.0,87,0.00,,,0.10,Wunderground v.1.13,2013-11-17 20:35:00,
2013-11-17 15:40:00,60.9,56.7,29.77,South,177,0.0,5.0,86,0.00,,,0.10,Wunderground v.1.13,2013-11-17 20:40:00,
2013-11-17 15:45:00,61.0,56.8,29.77,SSW,200,0.0,4.0,86,0.00,,,0.10,Wunderground v.1.13,2013-11-17 20:45:00,
2013-11-17 15:50:00,61.1,56.6,29.78,SSW,200,0.0,3.0,85,0.00,,,0.10,Wunderground v.1.13,2013-11-17 20:50:00,
2013-11-17 15:55:00,61.3,56.8,29.77,SSW,201,0.0,4.0,85,0.00,,,0.10,Wunderground v.1.13,2013-11-17 20:55:00,
2013-11-17 16:00:00,61.3,56.8,29.77,SSW,205,0.0,1.0,85,0.00,,,0.10,Wunderground v.1.13,2013-11-17 21:00:00,
2013-11-17 16:06:00,61.4,56.5,29.77,SSW,203,1.0,5.0,84,0.00,,,0.10,Wunderground v.1.13,2013-11-17 21:06:00,
2013-11-17 16:11:00,61.5,56.9,29.78,SSW,205,0.0,1.0,85,0.00,,,0.10,Wunderground v.1.13,2013-11-17 21:11:00,
2013-11-17 16:16:00,61.5,56.9,29.77,SSW,205,0.0,2.0,85,0.00,,,0.10,Wunderground v.1.13,2013-11-17 21:16:00,
2013-11-17 16:21:00,61.3,56.8,29.77,SSW,196,0.0,5.0,85,0.00,,,0.10,Wunderground v.1.13,2013-11-17 21:21:00,
2013-11-17 16:26:00,61.1,56.6,29.76,South,188,0.0,1.0,85,0.00,,,0.10,Wunderground v.1.13,2013-11-17 21:26:00,
2013-11-17 16:31:00,61.0,56.8,29.76,SSE,168,0.0,2.0,86,0.00,,,0.10,Wunderground v.1.13,2013-11-17 21:31:00,
2013-11-17 16:36:00,60.8,56.6,29.76,South,178,6.0,6.0,86,0.00,,,0.10,Wunderground v.1.13,2013-11-17 21:36:00,
2013-11-17 16:41:00,60.6,56.4,29.75,SSE,167,6.0,9.0,86,0.00,,,0.11,Wunderground v.1.13,2013-11-17 21:41:00,
2013-11-17 16:46:00,60.3,56.1,29.73,SE,140,0.0,9.0,86,0.00,,,0.11,Wunderground v.1.13,2013-11-17 21:46:00,
2013-11-17 16:51:00,60.1,55.9,29.73,South,173,1.0,8.0,86,0.00,,,0.11,Wunderground v.1.13,2013-11-17 21:51:00,
2013-11-17 16:56:00,60.0,55.5,29.72,SE,138,10.0,11.0,85,0.00,,,0.11,Wunderground v.1.13,2013-11-17 21:56:00,
2013-11-17 17:01:00,59.9,55.4,29.72,SSE,149,7.0,11.0,85,0.00,,,0.11,Wunderground v.1.13,2013-11-17 22:01:00,
2013-11-17 17:06:00,60.0,55.2,29.72,ESE,119,9.0,9.0,84,0.00,,,0.11,Wunderground v.1.13,2013-11-17 22:06:00,
2013-11-17 17:11:00,60.1,54.9,29.73,SE,140,9.0,13.0,83,0.00,,,0.11,Wunderground v.1.13,2013-11-17 22:11:00,
2013-11-17 17:16:00,60.2,54.7,29.72,SSE,164,13.0,13.0,82,0.00,,,0.11,Wunderground v.1.13,2013-11-17 22:16:00,
2013-11-17 17:21:00,60.4,54.5,29.72,SE,126,15.0,18.0,81,0.00,,,0.11,Wunderground v.1.13,2013-11-17 22:21:00,
2013-11-17 17:26:00,60.5,54.6,29.72,SE,138,6.0,13.0,81,0.00,,,0.11,Wunderground v.1.13,2013-11-17 22:26:00,
2013-11-17 17:31:00,60.5,54.6,29.71,SSE,163,8.0,11.0,81,0.00,,,0.11,Wunderground v.1.13,2013-11-17 22:31:00,
2013-11-17 17:36:00,60.4,54.5,29.71,ESE,106,4.0,9.0,81,0.00,,,0.11,Wunderground v.1.13,2013-11-17 22:36:00,
2013-11-17 17:41:00,60.3,54.4,29.71,SE,126,4.0,15.0,81,0.00,,,0.11,Wunderground v.1.13,2013-11-17 22:41:00,
2013-11-17 17:46:00,60.3,54.4,29.71,SSE,159,1.0,24.0,81,0.00,,,0.11,Wunderground v.1.13,2013-11-17 22:46:00,
2013-11-17 17:51:00,60.4,54.2,29.71,SE,133,18.0,18.0,80,0.00,,,0.11,Wunderground v.1.13,2013-11-17 22:51:00,
2013-11-17 17:56:00,60.5,54.3,29.71,ESE,115,5.0,10.0,80,0.00,,,0.11,Wunderground v.1.13,2013-11-17 22:56:00,
2013-11-17 18:01:00,60.4,54.5,29.71,SSE,161,5.0,7.0,81,0.00,,,0.11,Wunderground v.1.13,2013-11-17 23:01:00,
2013-11-17 18:06:00,60.2,54.7,29.71,ESE,123,0.0,11.0,82,0.00,,,0.11,Wunderground v.1.13,2013-11-17 23:06:00,
2013-11-17 18:11:00,59.9,54.7,29.70,SE,144,5.0,7.0,83,0.00,,,0.11,Wunderground v.1.13,2013-11-17 23:11:00,
2013-11-17 18:16:00,59.4,54.6,29.70,SE,142,7.0,13.0,84,0.00,,,0.11,Wunderground v.1.13,2013-11-17 23:16:00,
2013-11-17 18:21:00,59.0,54.5,29.70,SSE,151,6.0,13.0,85,0.00,,,0.11,Wunderground v.1.13,2013-11-17 23:21:00,
2013-11-17 18:26:00,58.7,54.5,29.69,ESE,104,7.0,9.0,86,0.00,,,0.12,Wunderground v.1.13,2013-11-17 23:26:00,
2013-11-17 18:31:00,58.5,54.6,29.68,SSE,153,9.0,11.0,87,0.00,,,0.12,Wunderground v.1.13,2013-11-17 23:31:00,
2013-11-17 18:36:00,58.4,54.5,29.67,SSE,161,0.0,5.0,87,0.00,,,0.12,Wunderground v.1.13,2013-11-17 23:36:00,
2013-11-17 18:41:00,58.3,54.4,29.66,SSE,149,1.0,8.0,87,0.04,,,0.13,Wunderground v.1.13,2013-11-17 23:41:00,
2013-11-17 18:46:00,58.3,54.4,29.67,SSW,202,5.0,5.0,87,0.04,,,0.13,Wunderground v.1.13,2013-11-17 23:46:00,
2013-11-17 18:51:00,58.3,54.4,29.67,SSE,167,1.0,12.0,87,0.04,,,0.13,Wunderground v.1.13,2013-11-17 23:51:00,
2013-11-17 18:56:00,58.3,54.4,29.68,South,175,0.0,2.0,87,0.04,,,0.13,Wunderground v.1.13,2013-11-17 23:56:00,
2013-11-17 19:01:00,58.2,54.3,29.67,South,175,0.0,1.0,87,0.00,,,0.13,Wunderground v.1.13,2013-11-18 00:01:00,
2013-11-17 19:06:00,58.1,54.6,29.67,ESE,111,6.0,8.0,88,0.00,,,0.14,Wunderground v.1.13,2013-11-18 00:06:00,
2013-11-17 19:11:00,57.9,54.4,29.65,SSE,153,6.0,14.0,88,0.00,,,0.14,Wunderground v.1.13,2013-11-18 00:11:00,
2013-11-17 19:16:00,57.9,54.4,29.64,SSE,151,9.0,14.0,88,0.00,,,0.14,Wunderground v.1.13,2013-11-18 00:16:00,
2013-11-17 19:21:00,58.0,54.5,29.63,SE,130,7.0,9.0,88,0.04,,,0.15,Wunderground v.1.13,2013-11-18 00:21:00,
2013-11-17 19:26:00,58.1,54.6,29.63,SW,219,0.0,5.0,88,0.04,,,0.15,Wunderground v.1.13,2013-11-18 00:26:00,
2013-11-17 19:31:00,58.2,54.7,29.63,SSW,213,0.0,6.0,88,0.04,,,0.15,Wunderground v.1.13,2013-11-18 00:31:00,
2013-11-17 19:36:00,58.3,54.8,29.63,SSW,204,0.0,9.0,88,0.00,,,0.15,Wunderground v.1.13,2013-11-18 00:36:00,
2013-11-17 19:41:00,58.5,54.6,29.61,SW,227,3.0,5.0,87,0.00,,,0.15,Wunderground v.1.13,2013-11-18 00:41:00,
2013-11-17 19:46:00,58.7,54.5,29.61,East,81,3.0,9.0,86,0.00,,,0.16,Wunderground v.1.13,2013-11-18 00:46:00,
2013-11-17 19:51:00,58.8,54.6,29.60,SE,133,14.0,14.0,86,0.00,,,0.16,Wunderground v.1.13,2013-11-18 00:51:00,
2013-11-17 19:56:00,59.1,54.6,29.59,SSE,159,8.0,8.0,85,0.00,,,0.16,Wunderground v.1.13,2013-11-18 00:56:00,
2013-11-17 20:01:00,59.5,54.7,29.59,SSE,159,0.0,8.0,84,0.00,,,0.16,Wunderground v.1.13,2013-11-18 01:01:00,
2013-11-17 20:06:00,59.6,54.4,29.58,SSE,159,5.0,13.0,83,0.00,,,0.16,Wunderground v.1.13,2013-11-18 01:06:00,
2013-11-17 20:11:00,59.8,54.6,29.58,SSE,168,0.0,12.0,83,0.00,,,0.16,Wunderground v.1.13,2013-11-18 01:11:00,
2013-11-17 20:16:00,60.0,54.5,29.58,SW,230,0.0,5.0,82,0.00,,,0.16,Wunderground v.1.13,2013-11-18 01:16:00,
2013-11-17 20:21:00,60.1,54.6,29.57,SW,234,0.0,8.0,82,0.00,,,0.16,Wunderground v.1.13,2013-11-18 01:21:00,
2013-11-17 20:26:00,60.1,54.6,29.57,West,281,7.0,13.0,82,0.00,,,0.16,Wunderground v.1.13,2013-11-18 01:26:00,
2013-11-17 20:31:00,60.2,54.7,29.57,SW,220,7.0,8.0,82,0.00,,,0.16,Wunderground v.1.13,2013-11-18 01:31:00,
2013-11-17 20:36:00,60.3,54.8,29.57,SW,230,0.0,6.0,82,0.00,,,0.16,Wunderground v.1.13,2013-11-18 01:36:00,
2013-11-17 20:41:00,60.5,55.0,29.56,South,186,6.0,14.0,82,0.00,,,0.16,Wunderground v.1.13,2013-11-18 01:41:00,
2013-11-17 20:46:00,60.7,54.8,29.56,SSW,196,0.0,9.0,81,0.00,,,0.16,Wunderground v.1.13,2013-11-18 01:46:00,
2013-11-17 20:51:00,60.9,55.0,29.56,South,185,0.0,6.0,81,0.00,,,0.16,Wunderground v.1.13,2013-11-18 01:51:00,
2013-11-17 20:56:00,61.0,54.8,29.56,WSW,237,6.0,7.0,80,0.00,,,0.16,Wunderground v.1.13,2013-11-18 01:56:00,
2013-11-17 21:01:00,61.1,54.9,29.56,SSW,207,3.0,4.0,80,0.00,,,0.16,Wunderground v.1.13,2013-11-18 02:01:00,
2013-11-17 21:06:00,61.2,55.0,29.55,South,180,5.0,9.0,80,0.00,,,0.16,Wunderground v.1.13,2013-11-18 02:06:00,
2013-11-17 21:11:00,61.2,55.0,29.55,SSW,199,1.0,4.0,80,0.00,,,0.16,Wunderground v.1.13,2013-11-18 02:11:00,
2013-11-17 21:16:00,61.1,55.2,29.54,West,265,2.0,12.0,81,0.00,,,0.16,Wunderground v.1.13,2013-11-18 02:16:00,
2013-11-17 21:21:00,60.8,55.3,29.55,SW,232,3.0,8.0,82,0.00,,,0.16,Wunderground v.1.13,2013-11-18 02:21:00,
2013-11-17 21:26:00,60.5,55.3,29.56,SSW,197,2.0,9.0,83,0.00,,,0.16,Wunderground v.1.13,2013-11-18 02:26:00,
2013-11-17 21:31:00,60.2,55.7,29.57,SSW,192,4.0,9.0,85,0.00,,,0.17,Wunderground v.1.13,2013-11-18 02:31:00,
2013-11-17 21:36:00,59.8,55.6,29.56,SSW,193,0.0,2.0,86,0.00,,,0.17,Wunderground v.1.13,2013-11-18 02:36:00,
2013-11-17 21:41:00,59.6,55.7,29.55,SSW,195,0.0,1.0,87,0.00,,,0.17,Wunderground v.1.13,2013-11-18 02:41:00,
2013-11-17 21:46:00,59.4,55.5,29.55,SSW,192,0.0,6.0,87,0.00,,,0.17,Wunderground v.1.13,2013-11-18 02:46:00,
2013-11-17 21:51:00,59.2,55.6,29.55,SSW,193,0.0,2.0,88,0.00,,,0.18,Wunderground v.1.13,2013-11-18 02:51:00,
2013-11-17 21:56:00,59.2,56.0,29.55,South,185,1.0,9.0,89,0.00,,,0.18,Wunderground v.1.13,2013-11-18 02:56:00,
2013-11-17 22:01:00,59.2,56.0,29.55,SSW,195,5.0,8.0,89,0.04,,,0.18,Wunderground v.1.13,2013-11-18 03:01:00,
2013-11-17 22:06:00,59.4,56.5,29.55,South,191,0.0,8.0,90,0.04,,,0.19,Wunderground v.1.13,2013-11-18 03:06:00,
2013-11-17 22:11:00,59.6,56.7,29.55,SSW,193,3.0,3.0,90,0.04,,,0.19,Wunderground v.1.13,2013-11-18 03:11:00,
2013-11-17 22:16:00,59.7,57.1,29.54,SSW,196,4.0,8.0,91,0.04,,,0.19,Wunderground v.1.13,2013-11-18 03:16:00,
2013-11-17 22:21:00,59.8,57.2,29.54,South,184,3.0,7.0,91,0.04,,,0.20,Wunderground v.1.13,2013-11-18 03:21:00,
2013-11-17 22:26:00,60.0,57.4,29.52,South,178,0.0,8.0,91,0.04,,,0.20,Wunderground v.1.13,2013-11-18 03:26:00,
2013-11-17 22:31:00,60.2,57.6,29.53,SSW,200,2.0,5.0,91,0.05,,,0.21,Wunderground v.1.13,2013-11-18 03:31:00,
2013-11-17 22:36:00,60.5,57.9,29.52,SSE,167,1.0,9.0,91,0.05,,,0.21,Wunderground v.1.13,2013-11-18 03:36:00,
2013-11-17 22:41:00,60.8,58.2,29.52,South,187,0.0,3.0,91,0.05,,,0.21,Wunderground v.1.13,2013-11-18 03:41:00,
2013-11-17 22:46:00,61.2,58.6,29.51,SSW,203,8.0,11.0,91,0.04,,,0.22,Wunderground v.1.13,2013-11-18 03:46:00,
2013-11-17 22:51:00,61.7,58.7,29.51,SSW,198,0.0,4.0,90,0.04,,,0.22,Wunderground v.1.13,2013-11-18 03:51:00,
2013-11-17 22:56:00,62.3,59.3,29.52,SW,218,5.0,12.0,90,0.04,,,0.22,Wunderground v.1.13,2013-11-18 03:56:00,
2013-11-17 23:01:00,62.0,57.8,29.60,NW,304,10.0,16.0,86,0.05,,,0.23,Wunderground v.1.13,2013-11-18 04:01:00,
2013-11-17 23:06:00,59.4,53.6,29.59,SSW,213,6.0,6.0,81,0.05,,,0.23,Wunderground v.1.13,2013-11-18 04:06:00,
2013-11-17 23:11:00,58.1,52.6,29.60,SSW,209,6.0,7.0,82,0.04,,,0.24,Wunderground v.1.13,2013-11-18 04:11:00,
2013-11-17 23:16:00,56.9,51.5,29.61,South,182,0.0,8.0,82,0.04,,,0.24,Wunderground v.1.13,2013-11-18 04:16:00,
2013-11-17 23:21:00,56.0,50.9,29.61,South,184,3.0,8.0,83,0.04,,,0.24,Wunderground v.1.13,2013-11-18 04:21:00,
2013-11-17 23:26:00,55.4,50.6,29.62,South,184,3.0,5.0,84,0.06,,,0.25,Wunderground v.1.13,2013-11-18 04:26:00,
2013-11-17 23:31:00,54.8,50.1,29.63,South,170,5.0,5.0,84,0.06,,,0.25,Wunderground v.1.13,2013-11-18 04:31:00,
2013-11-17 23:36:00,54.3,49.9,29.63,South,188,4.0,10.0,85,0.04,,,0.26,Wunderground v.1.13,2013-11-18 04:36:00,
2013-11-17 23:41:00,53.9,49.2,29.63,South,173,2.0,8.0,84,0.04,,,0.26,Wunderground v.1.13,2013-11-18 04:41:00,
2013-11-17 23:46:00,53.7,49.3,29.63,SSW,207,0.0,7.0,85,0.05,,,0.27,Wunderground v.1.13,2013-11-18 04:46:00,
2013-11-17 23:51:00,53.6,48.9,29.63,South,188,6.0,8.0,84,0.05,,,0.27,Wunderground v.1.13,2013-11-18 04:51:00,
2013-11-17 23:56:00,53.5,48.8,29.63,SW,235,0.0,8.0,84,0.05,,,0.27,Wunderground v.1.13,2013-11-18 04:56:00,